Weather History for Rolla, ND

Change the Weather History Date:

Monday, May 27, 2013

  Actual Average (KRUG) Record (KRUG)
Temperature  
Mean Temperature 52 °F -  
Max Temperature 57 °F 75 °F 95 °F (1969)
Min Temperature 48 °F 46 °F 30 °F (1965)
Degree Days  
Heating Degree Days 12    
Growing Degree Days 2 (Base 50)    
Moisture  
Dew Point 52 °F    
Average Humidity 100    
Maximum Humidity 100    
Minimum Humidity 94    
Precipitation  
Precipitation 0.08 in - - ()
Sea Level Pressure  
Sea Level Pressure 29.88 in    
Wind  
Wind Speed 12 mph (SSE)    
Max Wind Speed 18 mph    
Max Gust Speed 22 mph    
Visibility 8 miles    
Events Rain    
Averages and records for this station are not official NWS values.
T = Trace of Precipitation, MM = Missing Value Source: NWS Daily Summary

Daily Weather History Graph

Daily Weather History Graph

Search for Another Location

Airport:

Trip Planner

Search our weather history database for the weather conditions in past years. The results will help you decide how hot, cold, wet, or windy it might be!

Date:

Astronomy

May. 27, 2013 Rise Set
Actual Time 5:43 AM CDT 9:28 PM CDT
Civil Twilight 5:02 AM CDT 10:09 PM CDT
Nautical Twilight 4:07 AM CDT 11:04 PM CDT
Astronomical Twilight 2:46 AM CDT 12:27 AM CDT
Moon No Moon Rise 8:26 AM CDT (5/27)
Length of Visible Light 17h 06m
Length of Day
15h 45m
Waning Gibbous, 91% of the Moon is Illuminated
May 27
Waning Gibbous
May 31
Last Quarter
Jun 8
New
Jun 16
First Quarter
Jun 23
Full

Hourly Weather History & Observations

Time (CDT) Temp. Dew Point Humidity Pressure Visibility Wind Dir Wind Speed Gust Speed Precip Events Conditions
12:15 AM 53.6 °F 53.6 °F 100% 29.98 in 10.0 mi SE 11.5 mph - N/A   Overcast
12:35 AM 53.6 °F 53.6 °F 100% 29.98 in 10.0 mi SE 10.4 mph - N/A   Overcast
12:55 AM 51.8 °F 51.8 °F 100% 29.97 in 10.0 mi SSE 9.2 mph - N/A   Overcast
1:15 AM 51.8 °F 51.8 °F 100% 29.97 in 10.0 mi SSE 13.8 mph - N/A   Overcast
1:35 AM 50.0 °F 50.0 °F 100% 29.96 in 10.0 mi SSE 11.5 mph 18.4 mph N/A   Overcast
1:55 AM 50.0 °F 50.0 °F 100% 29.96 in 10.0 mi SSE 11.5 mph - N/A   Scattered Clouds
2:15 AM 48.2 °F 48.2 °F 100% 29.97 in 10.0 mi SSE 12.7 mph 17.3 mph N/A   Clear
2:35 AM 48.2 °F 48.2 °F 100% 29.98 in 10.0 mi SSE 11.5 mph - N/A   Clear
2:55 AM 48.2 °F 48.2 °F 100% 29.99 in 10.0 mi SSE 11.5 mph - N/A   Partly Cloudy
3:15 AM 48.2 °F 48.2 °F 100% 29.97 in 10.0 mi SSE 13.8 mph - N/A   Mostly Cloudy
3:35 AM 48.2 °F 48.2 °F 100% 29.97 in 10.0 mi SSE 12.7 mph - N/A   Mostly Cloudy
3:55 AM 48.2 °F 48.2 °F 100% 29.97 in 10.0 mi South 11.5 mph - N/A   Overcast
4:15 AM 50.0 °F 50.0 °F 100% 29.96 in 10.0 mi SSE 12.7 mph - N/A   Overcast
4:35 AM 50.0 °F 50.0 °F 100% 29.96 in 10.0 mi South 10.4 mph - N/A   Overcast
4:55 AM 50.0 °F 50.0 °F 100% 29.95 in 10.0 mi South 8.1 mph - N/A   Overcast
5:15 AM 50.0 °F 50.0 °F 100% 29.94 in 10.0 mi SSE 8.1 mph - N/A   Overcast
5:35 AM 50.0 °F 50.0 °F 100% 29.96 in 10.0 mi South 10.4 mph - N/A   Overcast
5:55 AM 50.0 °F 50.0 °F 100% 29.95 in 10.0 mi South 8.1 mph - N/A   Overcast
6:15 AM 50.0 °F 50.0 °F 100% 29.95 in 6.0 mi SSE 9.2 mph - N/A   Overcast
6:35 AM 48.2 °F 48.2 °F 100% 29.95 in 3.0 mi South 8.1 mph - N/A   Overcast
6:55 AM 48.2 °F 48.2 °F 100% 29.96 in 3.0 mi SSE 10.4 mph - N/A   Overcast
7:15 AM 48.2 °F 48.2 °F 100% 29.97 in 9.0 mi South 12.7 mph - N/A   Overcast
7:35 AM 48.2 °F 48.2 °F 100% 29.97 in 4.0 mi South 10.4 mph - N/A   Overcast
7:55 AM 48.2 °F 48.2 °F 100% 29.97 in 2.0 mi South 11.5 mph - N/A   Overcast
8:15 AM 48.2 °F 48.2 °F 100% 29.96 in 3.0 mi South 10.4 mph - N/A   Overcast
8:35 AM 48.2 °F 48.2 °F 100% 29.94 in 3.0 mi SSE 10.4 mph - N/A   Overcast
8:55 AM 50.0 °F 50.0 °F 100% 29.94 in 5.0 mi South 10.4 mph - N/A   Overcast
9:15 AM 50.0 °F 50.0 °F 100% 29.92 in 5.0 mi South 9.2 mph - N/A   Overcast
9:35 AM 50.0 °F 50.0 °F 100% 29.92 in 4.0 mi SSE 9.2 mph - N/A   Overcast
9:55 AM 50.0 °F 50.0 °F 100% 29.90 in 10.0 mi SSE 11.5 mph - N/A   Overcast
10:15 AM 50.0 °F 50.0 °F 100% 29.90 in 10.0 mi SE 13.8 mph - N/A   Overcast
10:35 AM 50.0 °F 50.0 °F 100% 29.87 in 10.0 mi SE 12.7 mph 16.1 mph N/A   Overcast
10:55 AM 51.8 °F 51.8 °F 100% 29.85 in 10.0 mi ESE 17.3 mph 20.7 mph N/A   Overcast
11:15 AM 51.8 °F 51.8 °F 100% 29.86 in 10.0 mi SE 17.3 mph - N/A   Overcast
11:35 AM 51.8 °F 51.8 °F 100% 29.87 in 10.0 mi SSE 18.4 mph - N/A   Overcast
11:55 AM 53.6 °F 53.6 °F 100% 29.87 in 10.0 mi SSE 18.4 mph - N/A   Overcast
12:15 PM 53.6 °F 53.6 °F 100% 29.88 in 10.0 mi South 11.5 mph 17.3 mph N/A   Overcast
12:35 PM 53.6 °F 53.6 °F 100% 29.88 in 10.0 mi SSE 13.8 mph 18.4 mph N/A   Overcast
12:55 PM 53.6 °F 53.6 °F 100% 29.88 in 10.0 mi South 11.5 mph 19.6 mph N/A   Overcast
1:15 PM 53.6 °F 53.6 °F 100% 29.88 in 10.0 mi SSE 15.0 mph - N/A   Overcast
1:35 PM 53.6 °F 53.6 °F 100% 29.87 in 10.0 mi SSE 13.8 mph 21.9 mph N/A   Overcast
1:55 PM 53.6 °F 53.6 °F 100% 29.87 in 10.0 mi SSE 16.1 mph 20.7 mph N/A   Overcast
2:15 PM 53.6 °F 53.6 °F 100% 29.86 in 10.0 mi SSE 15.0 mph - N/A   Overcast
2:35 PM 53.6 °F 53.6 °F 100% 29.85 in 10.0 mi SSE 15.0 mph - N/A   Overcast
2:55 PM 53.6 °F 53.6 °F 100% 29.84 in 10.0 mi SE 13.8 mph 17.3 mph N/A   Overcast
3:15 PM 53.6 °F 53.6 °F 100% 29.84 in 10.0 mi SSE 10.4 mph - N/A   Overcast
3:35 PM 53.6 °F 53.6 °F 100% 29.84 in 10.0 mi South 11.5 mph - N/A   Overcast
3:55 PM 55.4 °F 55.4 °F 100% 29.84 in 10.0 mi South 11.5 mph - N/A   Overcast
4:15 PM 55.4 °F 55.4 °F 100% 29.84 in 10.0 mi SSE 11.5 mph - N/A   Overcast
4:35 PM 55.4 °F 55.4 °F 100% 29.83 in 10.0 mi SE 11.5 mph 16.1 mph N/A   Overcast
4:55 PM 55.4 °F 55.4 °F 100% 29.83 in 10.0 mi SSE 10.4 mph - N/A   Overcast
5:15 PM 55.4 °F 55.4 °F 100% 29.84 in 10.0 mi SSE 11.5 mph - N/A   Overcast
5:35 PM 55.4 °F 55.4 °F 100% 29.83 in 10.0 mi SSE 11.5 mph - N/A   Overcast
5:55 PM 55.4 °F 55.4 °F 100% 29.82 in 10.0 mi South 12.7 mph - N/A   Overcast
6:15 PM 55.4 °F 55.4 °F 100% 29.81 in 10.0 mi SSE 10.4 mph - N/A   Overcast
6:35 PM 55.4 °F 55.4 °F 100% 29.81 in 10.0 mi SSE 11.5 mph - N/A   Overcast
6:55 PM 57.2 °F 55.4 °F 94% 29.81 in 10.0 mi SSE 11.5 mph 17.3 mph N/A   Overcast
7:15 PM 57.2 °F 55.4 °F 94% 29.80 in 10.0 mi SSE 12.7 mph - N/A   Overcast
7:35 PM 57.2 °F 57.2 °F 100% 29.79 in 10.0 mi South 10.4 mph 16.1 mph N/A   Overcast
7:55 PM 57.2 °F 57.2 °F 100% 29.79 in 10.0 mi South 11.5 mph - N/A   Mostly Cloudy
8:15 PM 55.4 °F 55.4 °F 100% 29.79 in 10.0 mi South 13.8 mph - N/A   Scattered Clouds
8:35 PM 55.4 °F 55.4 °F 100% 29.79 in 7.0 mi South 13.8 mph - N/A   Mostly Cloudy
8:55 PM 55.4 °F 55.4 °F 100% 29.79 in 1.0 mi South 10.4 mph - N/A Rain Light Rain
9:15 PM 55.4 °F 55.4 °F 100% 29.77 in 3.0 mi SSE 8.1 mph - N/A   Overcast
9:35 PM 53.6 °F 53.6 °F 100% 29.74 in 1.8 mi ESE 9.2 mph - 0.03 in Rain Light Rain
9:55 PM 53.6 °F 53.6 °F 100% 29.73 in 2.5 mi ESE 13.8 mph - 0.08 in Rain Light Rain
10:15 PM 53.6 °F 53.6 °F 100% 29.74 in 4.0 mi SE 12.7 mph - N/A   Mostly Cloudy
10:35 PM 53.6 °F 53.6 °F 100% 29.76 in 5.0 mi SSW 9.2 mph - N/A   Mostly Cloudy
10:55 PM 53.6 °F 53.6 °F 100% 29.75 in 7.0 mi SSE 9.2 mph - N/A   Overcast
11:15 PM 53.6 °F 53.6 °F 100% 29.74 in 5.0 mi SSE 15.0 mph - N/A   Overcast
11:35 PM 53.6 °F 53.6 °F 100% 29.75 in 5.0 mi SSE 13.8 mph 19.6 mph N/A   Overcast
11:55 PM 53.6 °F 53.6 °F 100% 29.74 in 6.0 mi SSE 13.8 mph - N/A   Mostly Cloudy